EW7351 Weather Reports


time (UTC)temp
C
wind
direction
speed
KPH
gust
KPH
rain 1hr
cm
rain 24hr
cm
rain mn
cm
humidity
%
barometer
mb
20240222100649 18 233 12.9 27.4 0.00 0.00 0.00 78 1007.7
20240222100117 18 220 12.9 25.7 0.00 0.00 0.00 78 1007.8
20240222095615 18 189 11.3 22.5 0.00 0.00 0.00 78 1007.8
20240222095114 18 191 11.3 25.7 0.00 0.00 0.00 77 1008.1
20240222094545 18 259 11.3 25.7 0.00 0.00 0.00 78 1008.2
20240222094044 18 181 11.3 20.9 0.00 0.00 0.00 77 1008.3
20240222093540 18 168 11.3 22.5 0.00 0.00 0.00 77 1008.3
20240222093037 18 176 11.3 22.5 0.00 0.00 0.00 77 1008.5
20240222092806 18 245 9.7 25.7 0.00 0.00 0.00 77 1008.6
20240222092011 18 215 9.7 24.1 0.00 0.00 0.00 77 1008.7
20240222091948 18 156 11.3 24.1 0.00 0.00 0.00 77 1008.7
20240222091006 18 247 11.3 25.7 0.00 0.00 0.00 77 1008.8
20240222090435 18 222 11.3 25.7 0.00 0.00 0.00 77 1008.9
20240222090118 18 218 11.3 25.7 0.00 0.00 0.00 77 1008.9
20240222085357 18 243 11.3 25.7 0.00 0.00 0.00 77 1008.9
20240222084859 18 154 11.3 22.5 0.00 0.00 0.00 77 1009.0
20240222084332 18 176 12.9 22.5 0.00 0.00 0.00 77 1009.1
20240222083808 18 227 12.9 25.7 0.00 0.00 0.00 77 1009.2
20240222083233 18 240 11.3 22.5 0.00 0.00 0.00 77 1009.1
20240222082733 18 215 12.9 24.1 0.00 0.00 0.00 77 1009.2
20240222082223 18 165 12.9 27.4 0.00 0.00 0.00 77 1009.3
20240222081721 18 148 12.9 27.4 0.00 0.00 0.00 77 1009.4
20240222081154 18 226 11.3 24.1 0.00 0.00 0.00 77 1009.5
20240222080650 18 240 9.7 24.1 0.00 0.00 0.00 77 1009.5
20240222080156 18 236 11.3 24.1 0.00 0.00 0.00 76 1009.5
20240222075621 18 205 12.9 25.7 0.00 0.00 0.00 76 1009.8
20240222075118 18 181 11.3 25.7 0.00 0.00 0.00 76 1009.7
20240222074554 18 253 12.9 30.6 0.00 0.00 0.00 76 1009.8
20240222074031 18 209 14.5 30.6 0.00 0.00 0.00 76 1009.9
20240222073532 18 223 12.9 29.0 0.00 0.00 0.00 76 1009.9
20240222073248 18 237 11.3 22.5 0.00 0.00 0.00 76 1009.7
20240222072740 18 181 11.3 22.5 0.00 0.00 0.00 76 1009.8
20240222071955 18 191 12.9 22.5 0.00 0.00 0.00 76 1009.8
20240222071424 18 168 14.5 20.9 0.00 0.00 0.00 76 1009.7
20240222070904 18 155 14.5 32.2 0.00 0.00 0.00 75 1009.7
20240222070353 18 204 12.9 32.2 0.00 0.00 0.00 76 1009.7
20240222065851 18 224 12.9 29.0 0.00 0.00 0.00 75 1009.7
20240222065349 18 216 12.9 30.6 0.00 0.00 0.00 75 1009.7
20240222065103 18 244 12.9 30.6 0.00 0.00 0.00 75 1009.8
20240222064345 18 238 14.5 40.2 0.00 0.00 0.00 75 1009.7
20240222063845 18 244 16.1 40.2 0.00 0.00 0.00 75 1009.6
20240222063554 18 167 16.1 45.1 0.00 0.00 0.00 75 1009.6
20240222062800 18 155 14.5 33.8 0.00 0.00 0.00 75 1009.8
20240222062242 18 249 16.1 33.8 0.00 0.00 0.00 75 1009.7
20240222062223 18 163 16.1 33.8 0.00 0.00 0.00 75 1009.8
20240222061229 18 178 16.1 33.8 0.00 0.00 0.00 75 1009.8
20240222060729 18 148 14.5 30.6 0.00 0.00 0.00 75 1009.9
20240222060228 18 130 16.1 32.2 0.00 0.00 0.00 75 1009.8
20240222055728 18 116 16.1 32.2 0.00 0.00 0.00 75 1009.8
20240222055209 18 269 14.5 30.6 0.00 0.00 0.00 75 1009.9
20240222054637 18 245 12.9 30.6 0.00 0.00 0.00 75 1010.0
20240222054112 18 208 16.1 33.8 0.00 0.00 0.00 75 1010.0
20240222054054 18 143 14.5 33.8 0.00 0.00 0.00 75 1010.0
20240222053101 18 179 14.5 32.2 0.00 0.00 0.00 74 1009.8
20240222052749 18 229 14.5 32.2 0.00 0.00 0.00 74 1009.8
20240222052009 18 159 16.1 32.2 0.00 0.00 0.00 74 1009.9
20240222051436 18 144 17.7 40.2 0.00 0.00 0.00 73 1010.0
20240222050932 18 182 16.1 40.2 0.00 0.00 0.00 73 1010.0
20240222050413 18 221 14.5 37.0 0.00 0.00 0.00 73 1009.9
20240222045841 18 163 12.9 32.2 0.00 0.00 0.00 73 1010.0
20240222045600 19 235 11.3 32.2 0.00 0.00 0.00 72 1010.0
20240222044816 19 236 11.3 24.1 0.00 0.00 0.00 72 1010.1
20240222044244 19 242 11.3 24.1 0.00 0.00 0.00 72 1010.1
20240222043742 19 173 9.7 27.4 0.00 0.00 0.00 72 1010.1
20240222043217 19 223 12.9 27.4 0.00 0.00 0.00 71 1010.1
20240222042648 19 210 12.9 27.4 0.00 0.00 0.00 71 1010.0
20240222042146 19 173 11.3 27.4 0.00 0.00 0.00 71 1010.0
20240222041615 19 159 12.9 25.7 0.00 0.00 0.00 70 1010.0
20240222041051 20 276 12.9 29.0 0.00 0.00 0.00 70 1009.9
20240222040530 20 214 11.3 29.0 0.00 0.00 0.00 70 1010.0
20240222035956 20 233 9.7 22.5 0.00 0.00 0.00 69 1010.0
20240222035454 20 227 9.7 17.7 0.00 0.00 0.00 69 1009.9
20240222034927 20 207 12.9 24.1 0.00 0.00 0.00 68 1009.9
20240222034406 20 125 11.3 20.9 0.00 0.00 0.00 68 1009.8
20240222034052 20 213 9.7 20.9 0.00 0.00 0.00 68 1009.8
20240222033807 20 234 9.7 25.7 0.00 0.00 0.00 68 1009.8
20240222032824 20 149 9.7 25.7 0.00 0.00 0.00 67 1009.7
20240222032539 20 148 9.7 22.5 0.00 0.00 0.00 67 1009.8
20240222031812 20 190 8.0 22.5 0.00 0.00 0.00 66 1009.8
20240222031316 20 157 8.0 20.9 0.00 0.00 0.00 66 1009.8
20240222030748 20 137 9.7 19.3 0.00 0.00 0.00 65 1009.9
20240222030220 20 214 9.7 19.3 0.00 0.00 0.00 65 1009.9
20240222025953 20 179 9.7 20.9 0.00 0.00 0.00 64 1010.0
20240222025155 20 99 6.4 20.9 0.00 0.00 0.00 64 1010.1
20240222024624 20 233 4.8 14.5 0.00 0.00 0.00 64 1010.2
20240222024120 20 227 6.4 14.5 0.00 0.00 0.00 63 1010.2
20240222023844 20 174 6.4 17.7 0.00 0.00 0.00 63 1010.2
20240222023117 20 234 6.4 16.1 0.00 0.00 0.00 62 1010.2
20240222022823 21 212 6.4 17.7 0.00 0.00 0.00 62 1010.3
20240222022102 21 144 8.0 17.7 0.00 0.00 0.00 61 1010.3
20240222021605 21 218 9.7 16.1 0.00 0.00 0.00 61 1010.3
20240222021057 21 200 9.7 16.1 0.00 0.00 0.00 60 1010.2
20240222020605 21 203 9.7 22.5 0.00 0.00 0.00 60 1010.2
20240222020312 21 179 9.7 22.5 0.00 0.00 0.00 59 1010.2
20240222015550 21 158 9.7 20.9 0.00 0.00 0.00 59 1010.0
20240222015030 21 209 11.3 20.9 0.00 0.00 0.00 58 1010.0
20240222014507 21 207 11.3 27.4 0.00 0.00 0.00 58 1010.0
20240222014007 21 189 11.3 27.4 0.00 0.00 0.00 57 1010.0
20240222013504 21 189 12.9 27.4 0.00 0.00 0.00 57 1009.9
20240222013240 22 241 12.9 27.4 0.00 0.00 0.00 57 1009.9
20240222012722 22 162 12.9 30.6 0.00 0.00 0.00 56 1010.0
20240222011920 22 168 14.5 30.6 0.00 0.00 0.00 56 1010.0
20240222011643 22 220 14.5 29.0 0.00 0.00 0.00 56 1009.8
20240222010906 22 124 12.9 29.0 0.00 0.00 0.00 56 1009.7
20240222010407 22 212 12.9 27.4 0.00 0.00 0.00 56 1009.8
20240222010119 22 173 14.5 27.4 0.00 0.00 0.00 56 1009.7
20240222005401 22 134 11.3 27.4 0.00 0.00 0.00 56 1009.9
20240222005055 22 230 11.3 29.0 0.00 0.00 0.00 55 1010.0
20240222004338 22 216 11.3 29.0 0.00 0.00 0.00 55 1009.9
20240222003802 22 159 14.5 29.0 0.00 0.00 0.00 54 1009.7
20240222003259 23 234 12.9 25.7 0.00 0.00 0.00 54 1009.9
20240222002743 23 156 11.3 25.7 0.00 0.00 0.00 53 1009.9
20240222002210 23 181 11.3 25.7 0.00 0.00 0.00 53 1010.0
20240222001906 23 225 12.9 25.7 0.00 0.00 0.00 52 1009.8
20240222001140 23 237 16.1 29.0 0.00 0.00 0.00 51 1009.4
20240222000615 23 124 14.5 29.0 0.00 0.00 0.00 50 1009.3
20240222000046 23 165 14.5 27.4 0.00 0.00 0.00 50 1009.4
20240221235530 23 168 14.5 33.8 0.00 0.00 0.00 50 1009.5
20240221234952 23 237 14.5 33.8 0.00 0.00 0.00 50 1009.7
20240221234449 23 205 16.1 30.6 0.00 0.00 0.00 49 1009.8
20240221234145 24 198 16.1 30.6 0.00 0.00 0.00 48 1009.9
20240221233417 24 191 14.5 29.0 0.00 0.00 0.00 48 1010.0
20240221232920 24 117 16.1 27.4 0.00 0.00 0.00 48 1010.0
20240221232346 24 166 14.5 27.4 0.00 0.00 0.00 47 1010.0
20240221231849 24 226 14.5 33.8 0.00 0.00 0.00 47 1009.9
20240221231316 24 155 17.7 32.2 0.00 0.00 0.00 47 1009.9
20240221230812 24 264 19.3 37.0 0.00 0.00 0.00 46 1009.9
20240221230251 25 248 19.3 37.0 0.00 0.00 0.00 46 1009.9
20240221225721 25 161 16.1 33.8 0.00 0.00 0.00 45 1010.0
20240221225156 25 252 14.5 30.6 0.00 0.00 0.00 46 1010.1
20240221224636 25 159 16.1 37.0 0.00 0.00 0.00 45 1010.1
20240221224143 25 155 16.1 37.0 0.00 0.00 0.00 44 1010.1
20240221223608 25 181 16.1 32.2 0.00 0.00 0.00 45 1010.3
20240221223109 25 281 14.5 32.2 0.00 0.00 0.00 45 1010.4
20240221222547 25 148 16.1 25.7 0.00 0.00 0.00 44 1010.4
20240221222046 25 188 19.3 35.4 0.00 0.00 0.00 44 1010.5
20240221221544 26 208 17.7 35.4 0.00 0.00 0.00 44 1010.6
20240221221041 26 171 16.1 33.8 0.00 0.00 0.00 43 1010.5
20240221221037 26 112 16.1 29.0 0.00 0.00 0.00 43 1010.5
20240221220017 26 225 16.1 29.0 0.00 0.00 0.00 43 1010.7
20240221215725 26 150 16.1 24.1 0.00 0.00 0.00 44 1011.0
20240221215208 26 195 14.5 25.7 0.00 0.00 0.00 43 1011.1
20240221214441 26 160 14.5 33.8 0.00 0.00 0.00 44 1011.1
20240221213919 26 163 17.7 33.8 0.00 0.00 0.00 44 1011.2
20240221213354 26 156 19.3 40.2 0.00 0.00 0.00 43 1011.3
20240221212900 26 251 19.3 40.2 0.00 0.00 0.00 43 1011.3
20240221212336 26 146 19.3 38.6 0.00 0.00 0.00 42 1011.5
20240221211835 26 251 19.3 38.6 0.00 0.00 0.00 43 1011.5
20240221211310 26 235 17.7 37.0 0.00 0.00 0.00 43 1011.5
20240221210749 26 233 16.1 35.4 0.00 0.00 0.00 43 1011.7
20240221210226 26 248 16.1 32.2 0.00 0.00 0.00 43 1011.9
20240221205726 25 226 16.1 33.8 0.00 0.00 0.00 44 1012.2
20240221205223 26 147 14.5 33.8 0.00 0.00 0.00 44 1012.3
20240221204733 26 195 14.5 29.0 0.00 0.00 0.00 44 1012.5
20240221204420 26 242 12.9 29.0 0.00 0.00 0.00 44 1012.6
20240221203856 26 226 12.9 29.0 0.00 0.00 0.00 45 1012.7
20240221203110 26 209 14.5 32.2 0.00 0.00 0.00 45 1012.8
20240221202607 25 202 17.7 32.2 0.00 0.00 0.00 45 1012.9
20240221202059 25 173 14.5 30.6 0.00 0.00 0.00 46 1013.1
20240221201753 25 117 12.9 25.7 0.00 0.00 0.00 46 1013.2
20240221201034 25 236 14.5 29.0 0.00 0.00 0.00 46 1013.3
20240221200532 25 201 14.5 29.0 0.00 0.00 0.00 47 1013.4
20240221200013 25 221 16.1 30.6 0.00 0.00 0.00 47 1013.5
20240221195715 25 213 16.1 30.6 0.00 0.00 0.00 47 1013.6
20240221194950 25 154 16.1 35.4 0.00 0.00 0.00 48 1013.6
20240221194447 25 167 16.1 35.4 0.00 0.00 0.00 48 1013.7
20240221193947 25 131 16.1 29.0 0.00 0.00 0.00 48 1013.8
20240221193447 25 199 16.1 30.6 0.00 0.00 0.00 48 1013.9
20240221193005 25 249 14.5 30.6 0.00 0.00 0.00 48 1014.1
20240221192644 25 159 16.1 29.0 0.00 0.00 0.00 49 1014.2
20240221191856 25 240 14.5 30.6 0.00 0.00 0.00 50 1014.3
20240221191351 25 250 16.1 27.4 0.00 0.00 0.00 50 1014.5
20240221190852 24 238 16.1 32.2 0.00 0.00 0.00 50 1014.7
20240221190554 24 261 14.5 32.2 0.00 0.00 0.00 50 1014.9
20240221185801 24 246 16.1 29.0 0.00 0.00 0.00 52 1015.0
20240221185506 24 158 14.5 29.0 0.00 0.00 0.00 53 1015.2
20240221185002 24 240 14.5 25.7 0.00 0.00 0.00 52 1015.3
20240221184239 23 258 14.5 29.0 0.00 0.00 0.00 54 1015.4
20240221183721 23 151 16.1 29.0 0.00 0.00 0.00 54 1015.6
20240221183220 23 216 14.5 30.6 0.00 0.00 0.00 54 1015.8
20240221182700 23 178 14.5 30.6 0.00 0.00 0.00 55 1016.0
20240221182350 23 129 16.1 35.4 0.00 0.00 0.00 55 1016.1
20240221181634 23 205 17.7 35.4 0.00 0.00 0.00 57 1016.2
20240221181113 22 207 16.1 25.7 0.00 0.00 0.00 57 1016.3
20240221180614 22 224 16.1 30.6 0.00 0.00 0.00 56 1016.4
20240221180049 22 166 16.1 29.0 0.00 0.00 0.00 57 1016.6
20240221175556 22 216 16.1 32.2 0.00 0.00 0.00 57 1016.6
20240221175044 22 200 14.5 32.2 0.00 0.00 0.00 58 1016.6
20240221174547 22 197 14.5 25.7 0.00 0.00 0.00 59 1016.7
20240221174038 22 227 16.1 32.2 0.00 0.00 0.00 60 1016.8
20240221173714 22 225 16.1 32.2 0.00 0.00 0.00 60 1016.8
20240221172946 21 233 14.5 30.6 0.00 0.00 0.00 60 1016.9
20240221172426 21 230 14.5 32.2 0.00 0.00 0.00 61 1017.0
20240221171851 21 174 16.1 33.8 0.00 0.00 0.00 62 1017.1
20240221171547 21 216 14.5 27.4 0.00 0.00 0.00 62 1017.2
20240221171432 21 271 14.5 27.4 0.00 0.00 0.00 62 1017.1
20240221170321 21 156 14.5 25.7 0.00 0.00 0.00 63 1017.3
20240221165817 21 248 14.5 25.7 0.00 0.00 0.00 64 1017.3
20240221165330 21 215 12.9 29.0 0.00 0.00 0.00 65 1017.4
20240221165016 20 174 14.5 29.0 0.00 0.00 0.00 65 1017.5
20240221164225 20 150 17.7 30.6 0.00 0.00 0.00 66 1017.4
20240221163711 20 240 16.1 30.6 0.00 0.00 0.00 68 1017.5
20240221163214 20 252 14.5 30.6 0.00 0.00 0.00 67 1017.5
20240221162645 20 229 16.1 38.6 0.00 0.00 0.00 70 1017.5
20240221162150 19 276 16.1 38.6 0.00 0.00 0.00 70 1017.6
20240221161627 19 141 16.1 29.0 0.00 0.00 0.00 71 1017.6
20240221161127 19 175 14.5 27.4 0.00 0.00 0.00 72 1017.7
20240221160627 19 148 14.5 24.1 0.00 0.00 0.00 72 1017.8
20240221160135 18 229 16.1 30.6 0.00 0.00 0.00 73 1017.9
20240221155625 18 266 16.1 30.6 0.00 0.00 0.00 74 1017.9
20240221155124 18 241 14.5 27.4 0.00 0.00 0.00 75 1018.0
20240221154601 18 179 12.9 25.7 0.00 0.00 0.00 77 1018.2
20240221154039 17 218 14.5 27.4 0.00 0.00 0.00 78 1018.2
20240221153503 17 185 14.5 27.4 0.00 0.00 0.00 77 1018.2
20240221153000 17 228 12.9 27.4 0.00 0.00 0.00 78 1018.2
20240221152458 17 253 14.5 27.4 0.00 0.00 0.00 79 1018.2
20240221151951 17 159 14.5 27.4 0.00 0.00 0.00 79 1018.0
20240221151449 17 241 12.9 29.0 0.00 0.00 0.00 80 1018.0
20240221150946 17 251 12.9 29.0 0.00 0.00 0.00 80 1018.0
20240221150444 17 160 12.9 25.7 0.00 0.00 0.00 82 1018.0
20240221145922 16 200 14.5 29.0 0.00 0.00 0.00 82 1018.2
20240221145349 16 229 12.9 29.0 0.00 0.00 0.00 82 1018.0
20240221144845 16 188 12.9 27.4 0.00 0.00 0.00 83 1018.0
20240221144549 16 183 12.9 20.9 0.00 0.00 0.00 84 1018.0
20240221144018 16 205 12.9 29.0 0.00 0.00 0.00 84 1018.0
20240221143520 16 221 11.3 29.0 0.00 0.00 0.00 84 1018.0
20240221142733 16 243 12.9 25.7 0.00 0.00 0.00 85 1018.2
20240221142155 16 220 12.9 25.7 0.00 0.00 0.00 85 1018.0
20240221141401 16 210 11.3 22.5 0.00 0.00 0.00 86 1018.2
20240221140635 16 215 11.3 22.5 0.00 0.00 0.00 86 1017.9
20240221140110 15 141 9.7 19.3 0.00 0.00 0.00 86 1017.9
20240221135541 15 175 11.3 20.9 0.00 0.00 0.00 86 1017.9
20240221135045 15 222 9.7 20.9 0.00 0.00 0.00 86 1017.8
20240221134733 15 185 9.7 20.9 0.00 0.00 0.00 87 1017.8
20240221134016 15 212 9.7 20.9 0.00 0.00 0.00 87 1017.9
20240221133450 15 271 8.0 17.7 0.00 0.00 0.00 87 1017.9
20240221132919 15 161 9.7 16.1 0.00 0.00 0.00 87 1018.0
20240221132419 15 217 8.0 20.9 0.00 0.00 0.00 87 1017.9
20240221131901 15 138 8.0 19.3 0.00 0.00 0.00 87 1017.8
20240221131348 15 228 8.0 17.7 0.00 0.00 0.00 87 1017.8
20240221130845 15 242 8.0 17.7 0.00 0.00 0.00 87 1017.8
20240221130320 15 219 8.0 19.3 0.00 0.00 0.00 86 1017.8
20240221130013 15 127 9.7 19.3 0.00 0.00 0.00 87 1017.8
20240221125249 15 231 8.0 19.3 0.00 0.00 0.00 87 1017.8
20240221124950 15 224 9.7 17.7 0.00 0.00 0.00 87 1017.8
20240221124444 15 238 11.3 20.9 0.00 0.00 0.00 87 1017.8
20240221123653 15 217 11.3 20.9 0.00 0.00 0.00 87 1017.8
20240221123409 15 115 8.0 20.9 0.00 0.00 0.00 87 1017.7
20240221122630 15 209 8.0 17.7 0.00 0.00 0.00 87 1017.7
20240221122324 15 206 9.7 17.7 0.00 0.00 0.00 87 1017.7
20240221121531 15 203 9.7 19.3 0.00 0.00 0.00 87 1017.6
20240221121027 15 134 9.7 22.5 0.00 0.00 0.00 87 1017.6
20240221120459 15 143 11.3 22.5 0.00 0.00 0.00 87 1017.5
20240221120006 15 248 12.9 22.5 0.00 0.00 0.00 87 1017.5
20240221115434 15 165 11.3 22.5 0.00 0.00 0.00 87 1017.5
20240221114929 15 228 9.7 19.3 0.00 0.00 0.00 87 1017.5
20240221114427 14 237 9.7 19.3 0.00 0.00 0.00 87 1017.4
20240221114127 14 141 9.7 17.7 0.00 0.00 0.00 87 1017.3
20240221113334 14 205 8.0 16.1 0.00 0.00 0.00 87 1017.3
20240221112829 14 222 6.4 14.5 0.00 0.00 0.00 87 1017.3
20240221112310 14 238 6.4 12.9 0.00 0.00 0.00 86 1017.3
20240221112226 14 181 6.4 16.1 0.00 0.00 0.00 86 1017.3
20240221111237 14 240 6.4 16.1 0.00 0.00 0.00 86 1017.2
20240221110738 14 203 8.0 16.1 0.00 0.00 0.00 86 1017.3
20240221110217 14 179 6.4 16.1 0.00 0.00 0.00 86 1017.2
20240221105721 14 160 6.4 16.1 0.00 0.00 0.00 85 1017.2
20240221105151 14 174 8.0 16.1 0.00 0.00 0.00 85 1017.1
20240221104650 14 127 8.0 16.1 0.00 0.00 0.00 85 1017.1
20240221104412 14 142 6.4 16.1 0.00 0.00 0.00 85 1017.1
20240221103627 14 231 4.8 12.9 0.00 0.00 0.00 85 1017.2
20240221103105 14 140 4.8 11.3 0.00 0.00 0.00 85 1017.2
20240221102607 14 164 4.8 11.3 0.00 0.00 0.00 84 1017.3
20240221102044 15 209 4.8 11.3 0.00 0.00 0.00 84 1017.3
20240221101521 15 229 4.8 12.9 0.00 0.00 0.00 84 1017.2
20240221101024 15 108 4.8 11.3 0.00 0.00 0.00 84 1017.3